Regional Weather Roundup
Issued by NWS

Home | Current Version | Previous Version | Graphics & Text | Print | Product List | Glossary On
Versions: 1 2 3 4 5 6 7 8 9 10 11 12 13 14 15 16 17 18 19 20 21 22 23 24 25 26 27 28 29 30 31 32 33 34 35 36 37 38 39 40 41 42 43 44 45 46 47 48 49 50
000
ASUS43 KLOT 262103
RWRIL

ILLINOIS REGIONAL WEATHER ROUNDUP
NATIONAL WEATHER SERVICE CHICAGO/ROMEOVILLE IL
400 PM CDT TUE JUL 26 2016

NOTE: "FAIR" INDICATES FEW OR NO CLOUDS BELOW 12,000 FEET WITH NO
SIGNIFICANT WEATHER AND/OR OBSTRUCTIONS TO VISIBILITY.

* THESE STATIONS ARE NOT UNDER NWS QUALITY CONTROL. THEY ALSO MAY NOT
  REPORT WEATHER SUCH AS PRECIPITATION OR FOG.

ILZ001-002-007-009-015-016-024-262200-
NORTHWEST ILLINOIS

CITY           SKY/WX    TMP DP  RH WIND       PRES   REMARKS
MOLINE         SUNNY     87  63  44 SE5       30.01F HX  88
STERLING*      MOSUNNY   85  66  53 CALM      30.02F HX  87
SAVANNA*       MOSUNNY   83  64  51 CALM      30.02F HX  85
$$

ILZ003-004-008-010-011-017-018-262200-
NORTH CENTRAL ILLINOIS

CITY           SKY/WX    TMP DP  RH WIND       PRES   REMARKS
ROCKFORD       MOSUNNY   85  64  49 S5        30.03F HX  86
FREEPORT*      MOSUNNY   82  62  51 CALM      30.05F HX  82
ROCHELLE*      MOSUNNY   83  65  53 CALM      30.04S HX  85
$$

ILZ005-006-012>014-019>023-262200-
NORTHEAST ILLINOIS

CITY           SKY/WX    TMP DP  RH WIND       PRES   REMARKS
CHICAGO-OHARE  MOSUNNY   85  64  49 E7        30.01F HX  86
CHICAGO-MIDWAY MOSUNNY   86  63  45 NE12      30.00F HX  87
AURORA         PTSUNNY   85  66  53 W5        30.02F HX  87
LANSING*       MOSUNNY   85  64  49 CALM      30.01F HX  86
WAUKEGAN       SUNNY     83  64  52 E8        30.02F HX  84
DUPAGE AIRPORT MOSUNNY   85  65  51 W5        30.01F HX  86
KANKAKEE*      CLOUDY    82  69  65 E5        30.02F HX  86
WHEELING       SUNNY     85  63  47 VRB5      30.03F HX  86
MORRIS*        MOSUNNY   85  69  57 CALM      30.00F HX  89
NORTHERLY ISL    N/A     80  70  71 NE5         N/A  HX  83
$$

LMZ740>746-262200-
SOUTHERN LAKE MICHIGAN

STATION/POSITION SKY/WX   TEMP    WIND        PRES    VSBY  WAVE
                          AIR SEA DIR/SP/G                  HT/PER
                          (F)     (DEG/KT/KT) (MB)    (MI)  (FT/S)
SOUTHERN BUOY              76 77  230/  4/  6 1016.8          0
WILMETTE HARBOR            77 75  140/  4/  6   N/A           0
HARRISON CRIB              79      70/  8/  8   N/A
BURNHAM HARBOR             80      50/  4/  6   N/A
CALUMET HARBOR             77      40/  8/  9 1016.3F
BURNS HARBOR               77      30/ 10/ 10 1017.3F
MICHIGAN CITY              78     350/  9/ 10   N/A
MICHIGAN CITY 6N           77 77   10/  6/  8   N/A           0
ST. JOSEPH                 77 78  320/  8/ 10 1016.6F         1
$$

ILZ025>027-034>036-040-047-049-050-058-095>099-262200-
WEST-CENTRAL ILLINOIS

CITY           SKY/WX    TMP DP  RH WIND       PRES   REMARKS
QUINCY         SUNNY     86  63  45 N5        30.00F HX  87
GALESBURG*     PTSUNNY   85  65  49 CALM      30.01F HX  87
MACOMB*        SUNNY     84  66  54 E5        30.03F HX  86
JACKSONVILLE*  MOSUNNY   86  68  55 CALM      29.99F HX  89
PITTSFIELD*    MOSUNNY   86  71  61 NE5       30.01F HX  92
$$

ILZ028>032-037-038-041>044-048-051>054-059>061-262200-
CENTRAL ILLINOIS

CITY           SKY/WX    TMP DP  RH WIND       PRES   REMARKS
PONTIAC        CLOUDY    86  74  68 E3        30.01F HX  94
BLOOMINGTON    PTSUNNY   82  69  64 E8        30.03F HX  85
DECATUR        SUNNY     85  70  60 E6        30.02F HX  89
PEORIA         PTSUNNY   84  66  54 VRB3      30.00F HX  86
LACON*         MOSUNNY   86  67  53 CALM      29.99F HX  88
LINCOLN*       PTSUNNY   85  73  66 E3        30.00F HX  91
SPRINGFIELD    SUNNY     85  66  53 E7        30.00F HX  87
TAYLORVILLE    PTSUNNY   82  71  68 MISG      30.00F HX  86
$$

ILZ033-039-045-046-055>057-062-063-262200-
EAST-CENTRAL ILLINOIS

CITY           SKY/WX    TMP DP  RH WIND       PRES   REMARKS
CHAMPAIGN      SUNNY     83  68  60 SE5       30.02F HX  86
MATTOON        SUNNY     82  68  62 NE6       30.00F HX  85
PARIS*         SUNNY     82  68  61 CALM      30.02S HX  85
$$

ILZ079-100>102-262200-
SOUTHWEST ILLINOIS

CITY           SKY/WX    TMP DP  RH WIND       PRES   REMARKS
BELLEVILLE     CLOUDY    87  75  67 NE5       29.96F HX  97
CAHOKIA*       PTSUNNY   87  75  67 SE7       29.96F HX  96
SPARTA*        CLOUDY    81  75  83 S5        30.00S HX  86
$$

ILZ064>066-069>071-074>076-080>082-084>086-088>090-092>094-262200-
SOUTH-CENTRAL ILLINOIS

CITY           SKY/WX    TMP DP  RH WIND       PRES   REMARKS
CARBONDALE     RAIN      75  72  90 SW7       30.00F FOG
EFFINGHAM*     SUNNY     84  74  73 E3        30.01F HX  91
MARION         LGT RAIN  77  75  94 S7        30.01S
MT. VERNON     CLOUDY    86  73  66 MISG      29.98R HX  93
CENTRALIA*     CLOUDY    86  78  79 NE3       29.98S HX  98
SALEM*         CLOUDY    86  76  72 NE5       29.98F HX  95
METROPOLIS*    CLOUDY    82  75  79 W8        30.01R HX  88
$$

ILZ067-068-072-073-078-083-087-091-262200-
SOUTHEAST ILLINOIS

CITY           SKY/WX    TMP DP  RH WIND       PRES   REMARKS
LAWRENCEVILLE  PTSUNNY   85  74  69 NE5       29.98F HX  92
FLORA*         MOSUNNY   85  76  75 N6        29.99S HX  95
FAIRFIELD*     PTSUNNY   86  76  73 N3        29.97S HX  96
HARRISBURG*    TSTM      77  76  95 SW5       29.99R
ROBINSON*      MOSUNNY   81  73  75 CALM      30.00S HX  85
CARMI*         CLOUDY    85  77  75 CALM      29.97S HX  95
$$

ABBREVIATIONS USED IN REMARKS
   TC - TEMPERATURE IN CELSIUS
  WCI - WIND CHILL INDEX
   HX - HEAT INDEX
  VSB - VISIBILITY
$$




USA.gov is the U.S. government's official web portal to all federal, state and local government web resources and services.